Asheboro, NC

7:58 PM EST on January 23, 2018 (GMT -0500)
Asheboro Municipal

Weather History for KHBI - February, 2013

Change the Weather History Date:

Wednesday, February 6, 2013

  Actual Average Record
Temperature  
Mean Temperature 45 °F -  
Max Temperature 60 °F 50 °F 73 °F (2008)
Min Temperature 30 °F 30 °F 12 °F (1966)
Degree Days  
Heating Degree Days 20    
Moisture  
Dew Point 26 °F    
Average Humidity 55    
Maximum Humidity 100    
Minimum Humidity 20    
Precipitation  
Precipitation 0.00 in - - ()
Sea Level Pressure  
Sea Level Pressure 30.15 in    
Wind  
Wind Speed 1 mph (NNW)    
Max Wind Speed 8 mph    
Max Gust Speed -    
Visibility 10 miles    
Events      
Averages and records for this station are not official NWS values.
T = Trace of Precipitation, MM = Missing Value Source: NWS Daily Summary

Daily Weather History Graph

Daily Weather History Graph

Search for Another Location

Airport or City:

Trip Planner

Search our weather history database for the weather conditions in past years. The results will help you decide how hot, cold, wet, or windy it might be!

Date:

Astronomy

Feb. 06, 2013 Rise Set
Actual Time 7:15 AM EST 5:52 PM EST
Civil Twilight 6:48 AM EST 6:19 PM EST
Nautical Twilight 6:18 AM EST 6:49 PM EST
Astronomical Twilight 5:48 AM EST 7:19 PM EST
Moon 3:53 AM EST (2/6) 2:13 PM EST (2/6)
Length of Visible Light 11h 30m
Length of Day
10h 37m
Waning Crescent, 17% of the Moon is Illuminated
Feb 6
Waning Crescent
Feb 10
New
Feb 17
First Quarter
Feb 25
Full
Mar 4
Last Quarter

Hourly Weather History & Observations

Time (EST) Temp. Windchill Dew Point Humidity Pressure Visibility Wind Dir Wind Speed Gust Speed Precip Events Conditions
12:17 AM 37.4 °F - 32.0 °F 81% 30.00 in 10.0 mi Calm Calm - N/A   Clear
1:17 AM 35.6 °F - 30.2 °F 81% 30.02 in 10.0 mi Calm Calm - N/A   Clear
1:37 AM 35.6 °F - 30.2 °F 81% 30.02 in 10.0 mi Calm Calm - N/A   Clear
1:57 AM 35.6 °F - 30.2 °F 81% 30.01 in 10.0 mi Calm Calm - N/A   Clear
2:37 AM 35.6 °F - 30.2 °F 81% 30.03 in 10.0 mi Calm Calm - N/A   Clear
2:57 AM 35.6 °F - 30.2 °F 81% 30.02 in 10.0 mi Calm Calm - N/A   Clear
3:17 AM 33.8 °F - 30.2 °F 87% 30.02 in 10.0 mi Calm Calm - N/A   Clear
3:37 AM 32.0 °F - 30.2 °F 93% 30.02 in 10.0 mi Calm Calm - N/A   Clear
3:57 AM 33.8 °F - 30.2 °F 87% 30.03 in 10.0 mi Calm Calm - N/A   Clear
4:17 AM 32.0 °F - 30.2 °F 93% 30.03 in 10.0 mi Calm Calm - N/A   Clear
4:40 AM 32.0 °F - 30.2 °F 93% 30.04 in 10.0 mi Calm Calm - N/A   Clear
5:17 AM 30.2 °F - 28.4 °F 93% 30.05 in 10.0 mi Calm Calm - N/A   Clear
5:37 AM 30.2 °F - 28.4 °F 93% 30.06 in 10.0 mi Calm Calm - N/A   Clear
5:57 AM 30.2 °F - 28.4 °F 93% 30.07 in 10.0 mi Calm Calm - N/A   Clear
6:17 AM 30.2 °F - 28.4 °F 93% 30.09 in 10.0 mi Calm Calm - N/A   Clear
6:37 AM 30.2 °F - 30.2 °F 100% 30.09 in 10.0 mi Calm Calm - N/A   Clear
6:57 AM 30.2 °F - 30.2 °F 100% 30.11 in 10.0 mi Calm Calm - N/A   Clear
7:17 AM 32.0 °F - 30.2 °F 93% 30.13 in 10.0 mi Calm Calm - N/A   Clear
7:37 AM 30.2 °F - 30.2 °F 100% 30.14 in 10.0 mi Calm Calm - N/A   Clear
7:57 AM 32.0 °F - 30.2 °F 93% 30.15 in 10.0 mi Calm Calm - N/A   Clear
8:17 AM 33.8 °F - 32.0 °F 93% 30.16 in 10.0 mi Calm Calm - N/A   Clear
8:37 AM 35.6 °F - 33.8 °F 93% 30.17 in 10.0 mi Calm Calm - N/A   Clear
8:57 AM 42.8 °F - 35.6 °F 76% 30.17 in 10.0 mi Calm Calm - N/A   Clear
9:17 AM 44.6 °F - 33.8 °F 66% 30.18 in 10.0 mi Calm Calm - N/A   Clear
9:37 AM 46.4 °F - 32.0 °F 57% 30.19 in 10.0 mi Calm Calm - N/A   Clear
10:17 AM 48.2 °F - 32.0 °F 54% 30.19 in 10.0 mi North 8.1 mph - N/A   Clear
10:37 AM 50.0 °F - 32.0 °F 50% 30.19 in 10.0 mi North 5.8 mph - N/A   Clear
11:00 AM 53.6 °F - 30.2 °F 41% 30.19 in 10.0 mi WNW 5.8 mph - N/A   Clear
11:35 AM 55.2 °F - 27.9 °F 35% 30.18 in 10.0 mi NW 6.9 mph - N/A   Clear
11:55 AM 55.9 °F - 26.8 °F 33% 30.19 in 10.0 mi NW 5.8 mph - N/A   Clear
12:15 PM 56.5 °F - 26.6 °F 32% 30.18 in 10.0 mi NNW 3.5 mph - N/A   Clear
12:35 PM 57.2 °F - 25.7 °F 30% 30.17 in 10.0 mi West 5.8 mph - N/A   Clear
12:55 PM 57.2 °F - 23.0 °F 27% 30.16 in 10.0 mi North 5.8 mph - N/A   Clear
1:35 PM 58.5 °F - 19.8 °F 22% 30.15 in 10.0 mi West 8.1 mph - N/A   Clear
1:55 PM 59.0 °F - 19.8 °F 22% 30.15 in 10.0 mi NNW 8.1 mph - N/A   Clear
2:15 PM 59.5 °F - 19.0 °F 21% 30.14 in 10.0 mi NNW 6.9 mph - N/A   Clear
2:35 PM 60.1 °F - 18.5 °F 20% 30.14 in 10.0 mi WNW 5.8 mph - N/A   Clear
2:55 PM 59.9 °F - 18.7 °F 20% 30.15 in 10.0 mi WNW 5.8 mph - N/A   Clear
3:15 PM 60.3 °F - 19.2 °F 20% 30.15 in 10.0 mi NNW 6.9 mph - N/A   Clear
3:35 PM 60.3 °F - 20.3 °F 21% 30.15 in 10.0 mi West 5.8 mph - N/A   Clear
3:55 PM 60.3 °F - 21.0 °F 22% 30.15 in 10.0 mi NNW 6.9 mph - N/A   Clear
4:15 PM 59.9 °F - 20.5 °F 22% 30.16 in 10.0 mi Calm Calm - N/A   Clear
4:35 PM 59.9 °F - 19.6 °F 21% 30.17 in 10.0 mi NW 6.9 mph - N/A   Clear
5:15 PM 59.0 °F - 19.6 °F 22% 30.18 in 10.0 mi NNW 5.8 mph - N/A   Clear
5:57 PM 55.4 °F - 23.0 °F 29% 30.19 in 10.0 mi Calm Calm - N/A   Clear
6:18 PM 51.8 °F - 24.8 °F 35% 30.19 in 10.0 mi Calm Calm - N/A   Clear
6:37 PM 48.2 °F - 24.8 °F 40% 30.21 in 10.0 mi Calm Calm - N/A   Clear
6:57 PM 48.2 °F - 24.8 °F 40% 30.21 in 10.0 mi Calm Calm - N/A   Clear
7:17 PM 46.4 °F - 24.8 °F 43% 30.22 in 10.0 mi Calm Calm - N/A   Clear
7:57 PM 44.6 °F - 24.8 °F 46% 30.22 in 10.0 mi Calm Calm - N/A   Clear
8:17 PM 44.6 °F - 21.2 °F 39% 30.23 in 10.0 mi Calm Calm - N/A   Clear
8:35 PM 46.0 °F 44.8 °F 21.9 °F 39% 30.24 in 10.0 mi ENE 3.5 mph - N/A   Clear
8:55 PM 49.1 °F - 21.6 °F 34% 30.23 in 10.0 mi Calm Calm - N/A   Clear
9:15 PM 49.5 °F - 22.1 °F 34% 30.24 in 10.0 mi East 3.5 mph - N/A   Clear
9:35 PM 49.6 °F - 22.1 °F 34% 30.23 in 10.0 mi East 4.6 mph - N/A   Clear
9:55 PM 48.7 °F - 22.5 °F 36% 30.24 in 10.0 mi ESE 3.5 mph - N/A   Clear
10:15 PM 48.2 °F - 22.1 °F 36% 30.24 in 10.0 mi Calm Calm - N/A   Clear
10:35 PM 48.2 °F - 22.5 °F 36% 30.24 in 10.0 mi Calm Calm - N/A   Clear
10:55 PM 48.0 °F - 22.8 °F 37% 30.25 in 10.0 mi Calm Calm - N/A   Clear
11:15 PM 47.3 °F - 22.8 °F 38% 30.28 in 10.0 mi Calm Calm - N/A   Clear
11:35 PM 45.1 °F - 24.4 °F 44% 30.28 in 10.0 mi Calm Calm - N/A   Clear
11:55 PM 42.6 °F - 23.9 °F 48% 30.27 in 10.0 mi Calm Calm - N/A   Clear